| time (UTC) | temp C | wind direction | speed KPH | gust KPH | rain 1hr cm | rain 24hr cm | rain mn cm | humidity % | barometer mb |
| 20260502150106 | 16 | 25 | 0.0 | 0.0 | 0.00 | 0.03 | 0.00 | 86 | 1019.1 |
| 20260502123039 | 10 | 25 | 0.0 | 0.0 | 0.00 | 0.03 | 0.00 | 94 | 1018.0 |
| 20260502121508 | 10 | 25 | 0.0 | 0.0 | 0.00 | 0.03 | 0.00 | 94 | 1017.7 |
| 20260502114539 | 10 | 25 | 0.0 | 0.0 | 0.00 | 0.03 | 0.00 | 93 | 1017.4 |
| 20260502113031 | 10 | 25 | 0.0 | 0.0 | 0.00 | 0.03 | 0.00 | 93 | 1016.9 |
| 20260502111530 | 10 | 25 | 0.0 | 0.0 | 0.00 | 0.03 | 0.00 | 93 | 1016.7 |
| 20260502110029 | 10 | 25 | 0.0 | 0.0 | 0.00 | 0.03 | 0.00 | 93 | 1016.6 |
| 20260502104527 | 10 | 25 | 0.0 | 0.0 | 0.00 | 0.03 | 0.00 | 93 | 1016.7 |
| 20260502103025 | 10 | 25 | 0.0 | 0.0 | 0.00 | 0.03 | 0.00 | 93 | 1016.6 |
| 20260502101522 | 10 | 25 | 0.0 | 0.0 | 0.00 | 0.03 | 0.00 | 93 | 1016.6 |
| 20260502091515 | 11 | 25 | 0.0 | 0.0 | 0.00 | 0.03 | 0.00 | 93 | 1016.1 |
| 20260502071507 | 11 | 25 | 0.0 | 0.0 | 0.00 | 0.03 | 0.00 | 93 | 1016.0 |
| 20260502070004 | 11 | 25 | 0.0 | 0.0 | 0.00 | 0.03 | 0.00 | 93 | 1016.0 |
| 20260502064501 | 12 | 25 | 0.0 | 0.0 | 0.00 | 0.03 | 0.00 | 93 | 1016.2 |
| 20260502063002 | 12 | 25 | 0.0 | 0.0 | 0.00 | 0.03 | 0.00 | 93 | 1016.2 |
| 20260502061601 | 12 | 25 | 0.0 | 0.0 | 0.00 | 0.03 | 0.00 | 93 | 1016.3 |
| 20260502060101 | 12 | 25 | 0.0 | 0.0 | 0.00 | 0.03 | 0.00 | 93 | 1016.2 |
| 20260502054559 | 12 | 25 | 0.0 | 0.0 | 0.00 | 0.03 | 0.00 | 93 | 1016.2 |
| 20260502053102 | 12 | 25 | 0.0 | 0.0 | 0.00 | 0.03 | 0.00 | 92 | 1016.1 |
| 20260502051558 | 12 | 25 | 0.0 | 0.0 | 0.00 | 0.03 | 0.00 | 92 | 1016.1 |
| 20260502050053 | 12 | 25 | 0.0 | 0.0 | 0.00 | 0.03 | 0.00 | 92 | 1016.2 |
| 20260502044554 | 12 | 25 | 0.0 | 0.0 | 0.00 | 0.03 | 0.00 | 92 | 1016.1 |
| 20260502043055 | 12 | 25 | 0.0 | 0.0 | 0.00 | 0.03 | 0.00 | 92 | 1015.9 |
| 20260502041550 | 12 | 25 | 0.0 | 0.0 | 0.00 | 0.03 | 0.00 | 92 | 1016.0 |
| 20260502040043 | 13 | 25 | 0.0 | 0.0 | 0.00 | 0.03 | 0.00 | 92 | 1016.0 |
| 20260502034541 | 13 | 25 | 0.0 | 0.0 | 0.00 | 0.03 | 0.00 | 92 | 1015.8 |
| 20260502033041 | 13 | 25 | 0.0 | 0.0 | 0.00 | 0.03 | 0.00 | 92 | 1015.8 |
| 20260502031538 | 13 | 25 | 0.0 | 0.0 | 0.00 | 0.03 | 0.00 | 92 | 1015.6 |
| 20260502030035 | 13 | 25 | 0.0 | 0.0 | 0.00 | 0.03 | 0.00 | 92 | 1015.4 |
| 20260502024539 | 13 | 25 | 0.0 | 0.0 | 0.00 | 0.03 | 0.00 | 91 | 1015.3 |
| 20260502023032 | 13 | 25 | 0.0 | 0.0 | 0.00 | 0.03 | 0.00 | 91 | 1015.5 |
| 20260502021531 | 13 | 25 | 0.0 | 0.0 | 0.00 | 0.03 | 0.00 | 90 | 1015.3 |
| 20260502020026 | 13 | 25 | 0.0 | 0.0 | 0.00 | 0.03 | 0.00 | 90 | 1015.1 |
| 20260502014545 | 13 | 25 | 0.0 | 0.0 | 0.00 | 0.03 | 0.00 | 90 | 1015.1 |
| 20260502013023 | 14 | 25 | 0.0 | 0.0 | 0.00 | 0.03 | 0.00 | 90 | 1014.6 |
| 20260502011521 | 14 | 25 | 0.0 | 0.0 | 0.00 | 0.03 | 0.00 | 90 | 1014.8 |
| 20260502010015 | 14 | 25 | 0.0 | 0.0 | 0.00 | 0.03 | 0.00 | 89 | 1014.1 |
| 20260502004617 | 15 | 25 | 0.0 | 0.0 | 0.00 | 0.03 | 0.00 | 89 | 1013.9 |
| 20260502003015 | 15 | 25 | 0.0 | 0.0 | 0.00 | 0.03 | 0.00 | 89 | 1013.9 |
| 20260502001518 | 15 | 25 | 0.0 | 0.0 | 0.00 | 0.03 | 0.00 | 88 | 1013.6 |
| 20260502000029 | 15 | 25 | 0.0 | 0.0 | 0.00 | 0.03 | 0.00 | 88 | 1013.7 |
| 20260501234507 | 15 | 25 | 0.0 | 0.0 | 0.00 | 0.03 | 0.00 | 88 | 1013.6 |
| 20260501233007 | 15 | 25 | 0.0 | 0.0 | 0.00 | 0.03 | 0.00 | 86 | 1013.9 |
| 20260501231515 | 15 | 25 | 0.0 | 0.0 | 0.00 | 0.03 | 0.00 | 85 | 1013.3 |
| 20260501230105 | 15 | 25 | 0.0 | 0.0 | 0.00 | 0.03 | 0.03 | 84 | 1013.3 |
| 20260501224604 | 15 | 25 | 0.0 | 0.0 | 0.00 | 0.03 | 0.03 | 83 | 1013.3 |
| 20260501223102 | 15 | 25 | 0.0 | 0.0 | 0.00 | 0.03 | 0.03 | 83 | 1012.8 |
| 20260501221602 | 15 | 25 | 0.0 | 0.0 | 0.00 | 0.03 | 0.03 | 81 | 1012.8 |
| 20260501220100 | 15 | 25 | 0.0 | 1.6 | 0.00 | 0.03 | 0.03 | 80 | 1012.3 |
| 20260501214555 | 15 | 25 | 0.0 | 1.6 | 0.00 | 0.03 | 0.03 | 81 | 1011.5 |
| 20260501213059 | 15 | 25 | 0.0 | 4.8 | 0.00 | 0.03 | 0.03 | 80 | 1011.7 |
| 20260501211554 | 15 | 25 | 0.0 | 1.6 | 0.00 | 0.03 | 0.03 | 80 | 1012.1 |
| 20260501210053 | 15 | 25 | 0.0 | 3.2 | 0.00 | 0.03 | 0.03 | 78 | 1012.7 |
| 20260501204552 | 15 | 25 | 0.0 | 3.2 | 0.00 | 0.03 | 0.03 | 77 | 1013.1 |
| 20260501203050 | 15 | 25 | 0.0 | 3.2 | 0.00 | 0.03 | 0.03 | 78 | 1013.5 |
| 20260501201600 | 16 | 25 | 0.0 | 3.2 | 0.00 | 0.03 | 0.03 | 78 | 1012.8 |
| 20260501200047 | 15 | 25 | 1.6 | 6.4 | 0.00 | 0.03 | 0.03 | 78 | 1012.1 |
| 20260501194547 | 15 | 25 | 0.0 | 6.4 | 0.00 | 0.03 | 0.03 | 81 | 1011.9 |
| 20260501193046 | 15 | 25 | 0.0 | 4.8 | 0.00 | 0.03 | 0.03 | 82 | 1011.7 |
| 20260501191545 | 15 | 25 | 0.0 | 8.0 | 0.00 | 0.03 | 0.03 | 84 | 1012.0 |
| 20260501190042 | 15 | 25 | 0.0 | 6.4 | 0.00 | 0.15 | 0.03 | 85 | 1012.3 |
| 20260501184541 | 14 | 25 | 0.0 | 0.0 | 0.00 | 0.15 | 0.03 | 87 | 1012.8 |
| 20260501183048 | 12 | 25 | 0.0 | 0.0 | 0.00 | 0.15 | 0.03 | 94 | 1013.5 |
| 20260501181542 | 12 | 25 | 0.0 | 0.0 | 0.00 | 0.15 | 0.03 | 94 | 1013.7 |
| 20260501180045 | 12 | 25 | 0.0 | 0.0 | 0.00 | 0.15 | 0.03 | 94 | 1014.5 |
| 20260501174544 | 12 | 25 | 0.0 | 0.0 | 0.00 | 0.15 | 0.03 | 94 | 1014.4 |
| 20260501173037 | 12 | 25 | 0.0 | 0.0 | 0.00 | 0.15 | 0.03 | 95 | 1014.4 |
| 20260501171542 | 12 | 25 | 0.0 | 0.0 | 0.03 | 0.15 | 0.03 | 95 | 1014.8 |
| 20260501170036 | 12 | 25 | 0.0 | 0.0 | 0.03 | 0.15 | 0.03 | 95 | 1015.2 |
| 20260501164511 | 12 | 25 | 0.0 | 0.0 | 0.03 | 0.15 | 0.03 | 95 | 1015.0 |
| 20260501163004 | 12 | 25 | 0.0 | 0.0 | 0.03 | 0.15 | 0.03 | 94 | 1015.1 |
| 20260501161503 | 12 | 25 | 0.0 | 0.0 | 0.00 | 0.13 | 0.00 | 94 | 1015.6 |
| 20260501160001 | 12 | 25 | 0.0 | 0.0 | 0.00 | 0.13 | 0.00 | 94 | 1015.6 |
| 20260501154602 | 12 | 25 | 0.0 | 0.0 | 0.00 | 0.13 | 0.00 | 94 | 1015.9 |
| 20260501153111 | 12 | 25 | 0.0 | 0.0 | 0.00 | 0.13 | 0.00 | 93 | 1015.5 |
| 20260501151558 | 12 | 25 | 0.0 | 0.0 | 0.00 | 0.13 | 0.00 | 93 | 1015.4 |